����,���ϕ���(m/s),���ϕ���,�ő�u�ԕ���(m/s),�ő啗��������,�C��(��),���x(%),10���Ԉړ��ώZ�J��(mm),1���Ԉړ��ώZ�J��(mm),���J��(mm),�݌v�J��(mm)
2021-06-07T00:00:00+09:00,0.6,��,1.6,��쓌,18.9,75,0,0,0,0
2021-06-07T00:01:00+09:00,0.5,��,1.6,��쓌,18.8,74.7,0,0,0,0
2021-06-07T00:02:00+09:00,0.5,��,1.3,��,18.8,74.9,0,0,0,0
2021-06-07T00:03:00+09:00,0.4,��쓌,1.3,��,18.8,74.9,0,0,0,0
2021-06-07T00:04:00+09:00,0.4,��쓌,1.3,��,18.8,74.8,0,0,0,0
2021-06-07T00:05:00+09:00,0.4,�쓌,1.2,���쓌,18.7,74.7,0,0,0,0
2021-06-07T00:06:00+09:00,0.4,�쓌,1.2,���쓌,18.8,75.5,0,0,0,0
2021-06-07T00:07:00+09:00,0.4,�쓌,1.2,���쓌,19.1,75.9,0,0,0,0
2021-06-07T00:08:00+09:00,0.5,���쓌,1.2,���쓌,18.9,73.9,0,0,0,0
2021-06-07T00:09:00+09:00,0.5,���쓌,1.2,���쓌,18.9,73.9,0,0,0,0
2021-06-07T00:10:00+09:00,0.4,���쓌,1.2,���쓌,18.9,73.9,0,0,0,0
2021-06-07T00:11:00+09:00,0.4,��,1.2,���쓌,18.9,73.3,0,0,0,0
2021-06-07T00:12:00+09:00,0.4,��,1.2,���쓌,18.9,73.3,0,0,0,0
2021-06-07T00:13:00+09:00,0.5,���쓌,1.3,��,18.8,73.8,0,0,0,0
2021-06-07T00:14:00+09:00,0.4,���쓌,1.3,��,18.7,75.2,0,0,0,0
2021-06-07T00:15:00+09:00,0.4,���쓌,1.3,��,18.7,76,0,0,0,0
2021-06-07T00:16:00+09:00,0.3,���쓌,1.3,��,18.8,75.6,0,0,0,0
2021-06-07T00:17:00+09:00,0.5,�쓌,1.9,�쐼,18.6,73.8,0,0,0,0
2021-06-07T00:18:00+09:00,0.6,��,2.2,�쐼,18.5,73.6,0,0,0,0
2021-06-07T00:19:00+09:00,0.7,��쐼,2.2,�쐼,18.5,74,0,0,0,0
2021-06-07T00:20:00+09:00,0.8,��쐼,2.2,�쐼,18.6,73.5,0,0,0,0
2021-06-07T00:21:00+09:00,0.8,��쐼,2.2,�쐼,18.7,73.7,0,0,0,0
2021-06-07T00:22:00+09:00,0.9,��쐼,2.2,�쐼,18.7,73.2,0,0,0,0
2021-06-07T00:23:00+09:00,0.9,��쐼,2.2,�쐼,18.7,73,0,0,0,0
2021-06-07T00:24:00+09:00,0.9,��쐼,2.2,�쐼,18.7,72.8,0,0,0,0
2021-06-07T00:25:00+09:00,1,��쐼,2.2,�쐼,18.6,73,0,0,0,0
2021-06-07T00:26:00+09:00,1,��쐼,2.2,�쐼,18.3,74,0,0,0,0
2021-06-07T00:27:00+09:00,1,�쐼,2.2,�쐼,18.2,74.9,0,0,0,0
2021-06-07T00:28:00+09:00,0.8,��쐼,1.8,�쐼,18.2,75.7,0,0,0,0
2021-06-07T00:29:00+09:00,0.7,�쐼,1.4,�쐼,18.2,76.5,0,0,0,0
2021-06-07T00:30:00+09:00,0.7,�쐼,1.3,���쐼,18.6,78.1,0,0,0,0
2021-06-07T00:31:00+09:00,0.7,�쐼,1.3,���쐼,18.5,77.2,0,0,0,0
2021-06-07T00:32:00+09:00,0.6,��,1.3,���쐼,18.5,77.5,0,0,0,0
2021-06-07T00:33:00+09:00,0.6,�k��,1.3,���쐼,18.4,77.8,0,0,0,0
2021-06-07T00:34:00+09:00,0.6,�k,1.3,���쐼,18.3,78,0,0,0,0
2021-06-07T00:35:00+09:00,0.6,�k��,1.3,���쐼,18.4,78.5,0,0,0,0
2021-06-07T00:36:00+09:00,0.5,���k��,1.3,���쐼,18.4,78.4,0,0,0,0
2021-06-07T00:37:00+09:00,0.5,���k��,1,�k�k��,18.5,78.2,0,0,0,0
2021-06-07T00:38:00+09:00,0.5,���k��,1,�k�k��,18.5,77.9,0,0,0,0
2021-06-07T00:39:00+09:00,0.5,��,1,�k�k��,18.5,77.9,0,0,0,0
2021-06-07T00:40:00+09:00,0.5,���쓌,1,�k�k��,18.6,77.9,0,0,0,0
2021-06-07T00:41:00+09:00,0.4,�쓌,1,�k�k��,18.6,77.4,0,0,0,0
2021-06-07T00:42:00+09:00,0.4,�쓌,0.9,��쐼,18.5,77.2,0,0,0,0
2021-06-07T00:43:00+09:00,0.4,��쓌,0.9,��쐼,18.5,77.5,0,0,0,0
2021-06-07T00:44:00+09:00,0.3,��,0.9,��쐼,18.4,77,0,0,0,0
2021-06-07T00:45:00+09:00,0.3,��쐼,0.9,��쐼,18.3,76.8,0,0,0,0
2021-06-07T00:46:00+09:00,0.3,��쐼,1,�쓌,18.3,77,0,0,0,0
2021-06-07T00:47:00+09:00,0.4,��,1.1,��,18.5,77.4,0,0,0,0
2021-06-07T00:48:00+09:00,0.4,�쓌,1.4,���쓌,18.4,76.7,0,0,0,0
2021-06-07T00:49:00+09:00,0.5,���쓌,1.5,�쓌,18.3,77,0,0,0,0
2021-06-07T00:50:00+09:00,0.6,���쓌,1.5,�쓌,18.3,77.6,0,0,0,0
2021-06-07T00:51:00+09:00,0.6,��,1.5,�쓌,18.3,78,0,0,0,0
2021-06-07T00:52:00+09:00,0.6,��,1.5,�쓌,18.2,77.8,0,0,0,0
2021-06-07T00:53:00+09:00,0.6,��,1.5,�쓌,18.2,77.8,0,0,0,0
2021-06-07T00:54:00+09:00,0.6,���쓌,1.5,�쓌,18.5,78.8,0,0,0,0
2021-06-07T00:55:00+09:00,0.6,��,1.5,�쓌,18.9,78.7,0,0,0,0
2021-06-07T00:56:00+09:00,0.6,��,1.5,�쓌,18.6,76.6,0,0,0,0
2021-06-07T00:57:00+09:00,0.6,��,1.5,�쓌,18.5,76.7,0,0,0,0
2021-06-07T00:58:00+09:00,0.5,���쓌,1.5,�쓌,18.3,77.4,0,0,0,0
2021-06-07T00:59:00+09:00,0.5,���쓌,1.4,��,18.2,77.9,0,0,0,0
2021-06-07T01:00:00+09:00,0.4,���쓌,1.1,���쓌,18.3,77.9,0,0,0,0
2021-06-07T01:01:00+09:00,0.4,�쓌,1,�k��,18.4,78.6,0,0,0,0
2021-06-07T01:02:00+09:00,0.4,�쓌,1,�k��,18.9,79.9,0,0,0,0
2021-06-07T01:03:00+09:00,0.4,�쓌,1,�k��,18.8,78,0,0,0,0
2021-06-07T01:04:00+09:00,0.5,�쓌,1.3,��쐼,18.5,76.1,0,0,0,0
2021-06-07T01:05:00+09:00,0.5,�쓌,1.3,��쐼,18.4,76.9,0,0,0,0
2021-06-07T01:06:00+09:00,0.6,��쓌,1.7,��쓌,18.3,76.9,0,0,0,0
2021-06-07T01:07:00+09:00,0.6,��쓌,1.7,��쓌,18.3,77.2,0,0,0,0
2021-06-07T01:08:00+09:00,0.6,��쓌,1.7,��쓌,18.4,77.2,0,0,0,0
2021-06-07T01:09:00+09:00,0.6,��쓌,1.7,��쓌,18.4,76.9,0,0,0,0
2021-06-07T01:10:00+09:00,0.5,��쓌,1.7,��쓌,18.4,76.4,0,0,0,0
2021-06-07T01:11:00+09:00,0.5,��쓌,1.7,��쓌,18.3,76.2,0,0,0,0
2021-06-07T01:12:00+09:00,0.4,��쓌,1.7,��쓌,18.2,76.5,0,0,0,0
2021-06-07T01:13:00+09:00,0.4,�쐼,1.7,��쓌,18.2,76.7,0,0,0,0
2021-06-07T01:14:00+09:00,0.3,��,1.7,��쓌,18.2,76.8,0,0,0,0
2021-06-07T01:15:00+09:00,0.3,��,1.7,��쓌,18,76.7,0,0,0,0
2021-06-07T01:16:00+09:00,0.3,��,1.3,��,17.9,76.7,0,0,0,0
2021-06-07T01:17:00+09:00,0.3,���k��,0.9,���쐼,18,77.7,0,0,0,0
2021-06-07T01:18:00+09:00,0.3,���k��,0.9,���쐼,17.9,77.4,0,0,0,0
2021-06-07T01:19:00+09:00,0.4,���k��,0.9,���쐼,17.9,76.5,0,0,0,0
2021-06-07T01:20:00+09:00,0.4,��,0.9,���쐼,17.9,76.9,0,0,0,0
2021-06-07T01:21:00+09:00,0.5,��,0.9,���쐼,17.9,77,0,0,0,0
2021-06-07T01:22:00+09:00,0.5,��,0.9,���쐼,17.9,77.2,0,0,0,0
2021-06-07T01:23:00+09:00,0.6,���쐼,1.2,��쐼,17.9,77.3,0,0,0,0
2021-06-07T01:24:00+09:00,0.6,���쐼,1.2,��쐼,17.9,77.5,0,0,0,0
2021-06-07T01:25:00+09:00,0.6,���쐼,1.2,��쐼,17.9,77.7,0,0,0,0
2021-06-07T01:26:00+09:00,0.5,�쐼,1.2,��쐼,18.2,78.4,0,0,0,0
2021-06-07T01:27:00+09:00,0.5,�쐼,1.2,��쐼,18.5,77.8,0,0,0,0
2021-06-07T01:28:00+09:00,0.5,�쐼,1.2,��쐼,18.3,76.4,0,0,0,0
2021-06-07T01:29:00+09:00,0.4,�쐼,1.2,��쐼,18.2,76.1,0,0,0,0
2021-06-07T01:30:00+09:00,0.3,�쐼,1.2,��쐼,18.2,76.1,0,0,0,0
2021-06-07T01:31:00+09:00,0.3,��쐼,1.2,��쐼,18.1,76.3,0,0,0,0
2021-06-07T01:32:00+09:00,0.3,��,1.2,��쐼,18.1,76.7,0,0,0,0
2021-06-07T01:33:00+09:00,0.3,��쓌,0.8,��,18.1,77.2,0,0,0,0
2021-06-07T01:34:00+09:00,0.3,�쓌,1.3,���쓌,18.1,77.8,0,0,0,0
2021-06-07T01:35:00+09:00,0.4,���쓌,1.7,��,18,78,0,0,0,0
2021-06-07T01:36:00+09:00,0.5,��,1.8,���쓌,17.9,77.8,0,0,0,0
2021-06-07T01:37:00+09:00,0.6,��,1.8,���쓌,17.8,78,0,0,0,0
2021-06-07T01:38:00+09:00,0.8,��,1.8,���쓌,17.8,78.4,0,0,0,0
2021-06-07T01:39:00+09:00,0.9,��,1.8,���쓌,17.9,78.2,0,0,0,0
2021-06-07T01:40:00+09:00,0.9,��,1.8,���쓌,17.9,78.3,0,0,0,0
2021-06-07T01:41:00+09:00,1,���쓌,1.8,���쓌,17.9,78.2,0,0,0,0
2021-06-07T01:42:00+09:00,1,���쓌,1.8,���쓌,18.4,79.4,0,0,0,0
2021-06-07T01:43:00+09:00,1,���쓌,1.8,���쓌,18.5,78.5,0,0,0,0
2021-06-07T01:44:00+09:00,1,�쓌,1.8,���쓌,18.2,76.5,0,0,0,0
2021-06-07T01:45:00+09:00,1,�쓌,1.8,���쓌,18.1,76.7,0,0,0,0
2021-06-07T01:46:00+09:00,0.9,�쓌,1.7,�쓌,17.9,77.1,0,0,0,0
2021-06-07T01:47:00+09:00,0.8,��쓌,1.7,�쓌,17.9,77.5,0,0,0,0
2021-06-07T01:48:00+09:00,0.7,��쓌,1.4,���쓌,17.9,77.8,0,0,0,0
2021-06-07T01:49:00+09:00,0.6,��쓌,1.1,��,18,78.3,0,0,0,0
2021-06-07T01:50:00+09:00,0.6,�쓌,1.1,��,17.8,78.6,0,0,0,0
2021-06-07T01:51:00+09:00,0.6,�쓌,1.1,��,17.7,79,0,0,0,0
2021-06-07T01:52:00+09:00,0.6,�쓌,1.1,��,17.6,79.6,0,0,0,0
2021-06-07T01:53:00+09:00,0.6,���쓌,1.1,��,17.6,80,0,0,0,0
2021-06-07T01:54:00+09:00,0.6,��,1.1,��,17.6,80.3,0,0,0,0
2021-06-07T01:55:00+09:00,0.5,���k��,1,�k��,17.6,80.6,0,0,0,0
2021-06-07T01:56:00+09:00,0.5,���k��,1,�k��,17.7,80.5,0,0,0,0
2021-06-07T01:57:00+09:00,0.5,���k��,1,�k��,17.8,81,0,0,0,0
2021-06-07T01:58:00+09:00,0.5,���k��,1,�k��,17.8,79.8,0,0,0,0
2021-06-07T01:59:00+09:00,0.5,���k��,1,�k��,17.8,78.8,0,0,0,0
2021-06-07T02:00:00+09:00,0.4,���k��,1,�k��,17.8,79.1,0,0,0,0
2021-06-07T02:01:00+09:00,0.3,��,0.7,��,17.7,79.1,0,0,0,0
2021-06-07T02:02:00+09:00,0.3,��,0.7,��,17.7,79,0,0,0,0
2021-06-07T02:03:00+09:00,0.3,��,0.7,��,17.7,78.7,0,0,0,0
2021-06-07T02:04:00+09:00,0.4,��,0.9,�k��,17.7,78.4,0,0,0,0
2021-06-07T02:05:00+09:00,0.4,��,1.1,���k��,17.6,78.1,0,0,0,0
2021-06-07T02:06:00+09:00,0.5,��,1.2,���k��,17.5,78.2,0,0,0,0
2021-06-07T02:07:00+09:00,0.5,��,1.2,���k��,17.4,78.6,0,0,0,0
2021-06-07T02:08:00+09:00,0.6,���k��,1.2,���k��,17.4,79,0,0,0,0
2021-06-07T02:09:00+09:00,0.6,���k��,1.2,���k��,17.3,78.9,0,0,0,0
2021-06-07T02:10:00+09:00,0.6,���k��,1.2,���k��,17.4,79.4,0,0,0,0
2021-06-07T02:11:00+09:00,0.6,���k��,1.2,���k��,17.3,79.2,0,0,0,0
2021-06-07T02:12:00+09:00,0.7,���k��,1.2,���k��,17.4,79.3,0,0,0,0
2021-06-07T02:13:00+09:00,0.7,���k��,1.3,��,17.4,79.3,0,0,0,0
2021-06-07T02:14:00+09:00,0.8,���k��,1.4,��,17.4,79.3,0,0,0,0
2021-06-07T02:15:00+09:00,0.8,��,1.4,��,17.4,79.2,0,0,0,0
2021-06-07T02:16:00+09:00,0.7,��,1.4,��,17.4,79.4,0,0,0,0
2021-06-07T02:17:00+09:00,0.7,��,1.4,��,17.4,79.5,0,0,0,0
2021-06-07T02:18:00+09:00,0.7,��,1.4,��,17.4,79.5,0,0,0,0
2021-06-07T02:19:00+09:00,0.7,��,1.4,��,17.3,79.9,0,0,0,0
2021-06-07T02:20:00+09:00,0.7,��,1.4,��,17.7,80.9,0,0,0,0
2021-06-07T02:21:00+09:00,0.7,��,1.4,��,17.7,80.1,0,0,0,0
2021-06-07T02:22:00+09:00,0.7,��,1.4,��,17.5,79.1,0,0,0,0
2021-06-07T02:23:00+09:00,0.7,��,1.4,��,17.4,79,0,0,0,0
2021-06-07T02:24:00+09:00,0.7,��,1.4,��,17.4,78.9,0,0,0,0
2021-06-07T02:25:00+09:00,0.8,��,1.8,���k��,17.4,79,0,0,0,0
2021-06-07T02:26:00+09:00,0.8,��,2,�k��,17.3,80,0,0,0,0
2021-06-07T02:27:00+09:00,0.9,��,2,�k��,17.3,81,0,0,0,0
2021-06-07T02:28:00+09:00,0.9,���k��,2,�k��,17.2,81.8,0,0,0,0
2021-06-07T02:29:00+09:00,0.9,���k��,2,�k��,17.2,82.4,0,0,0,0
2021-06-07T02:30:00+09:00,1,���k��,2,�k��,17.2,82.6,0,0,0,0
2021-06-07T02:31:00+09:00,1.1,���k��,2,�k��,17.2,82.9,0,0,0,0
2021-06-07T02:32:00+09:00,1,���k��,2,�k��,17.2,83.3,0,0,0,0
2021-06-07T02:33:00+09:00,1,�k��,2,�k��,17.2,83.2,0,0,0,0
2021-06-07T02:34:00+09:00,0.9,�k��,2,�k��,17.2,83.3,0,0,0,0
2021-06-07T02:35:00+09:00,0.8,�k��,2,�k��,17.5,84.2,0,0,0,0
2021-06-07T02:36:00+09:00,0.7,�k��,2,�k��,17.5,83.2,0,0,0,0
2021-06-07T02:37:00+09:00,0.6,���k��,1.7,�k��,17.3,81.9,0,0,0,0
2021-06-07T02:38:00+09:00,0.6,��,1.7,�k��,17.1,81.6,0,0,0,0
2021-06-07T02:39:00+09:00,0.6,���쓌,1.7,�k��,17,81.8,0,0,0,0
2021-06-07T02:40:00+09:00,0.5,�쓌,1.1,�k�k��,17.1,82.4,0,0,0,0
2021-06-07T02:41:00+09:00,0.5,�쓌,1.1,�k�k��,17,82.2,0,0,0,0
2021-06-07T02:42:00+09:00,0.5,��쓌,1.1,�k�k��,17,81.8,0,0,0,0
2021-06-07T02:43:00+09:00,0.4,��쓌,0.8,��쓌,17.3,82.9,0,0,0,0
2021-06-07T02:44:00+09:00,0.4,��쓌,0.8,��쓌,17.3,82.1,0,0,0,0
2021-06-07T02:45:00+09:00,0.4,��쓌,0.8,��쓌,17.2,81.4,0,0,0,0
2021-06-07T02:46:00+09:00,0.5,�쓌,0.8,��쓌,17.2,80.9,0,0,0,0
2021-06-07T02:47:00+09:00,0.5,�쓌,0.8,��쓌,17.1,80.4,0,0,0,0
2021-06-07T02:48:00+09:00,0.4,�쓌,0.8,��쓌,17.1,80.7,0,0,0,0
2021-06-07T02:49:00+09:00,0.4,�쓌,0.8,��쓌,17.3,81.6,0,0,0,0
2021-06-07T02:50:00+09:00,0.4,�쓌,0.8,��쓌,17.7,82.2,0,0,0,0
2021-06-07T02:51:00+09:00,0.4,�쓌,0.9,�쓌,17.4,79.9,0,0,0,0
2021-06-07T02:52:00+09:00,0.4,�쓌,0.9,�쓌,17.1,79.3,0,0,0,0
2021-06-07T02:53:00+09:00,0.5,�쓌,1,�쓌,16.9,80,0,0,0,0
2021-06-07T02:54:00+09:00,0.6,�쓌,1.1,�쓌,16.9,80.8,0,0,0,0
2021-06-07T02:55:00+09:00,0.6,�쓌,1.1,�쓌,16.9,81.8,0,0,0,0
2021-06-07T02:56:00+09:00,0.6,��쓌,1.1,�쓌,16.9,82.4,0,0,0,0
2021-06-07T02:57:00+09:00,0.6,��쓌,1.1,�쓌,16.9,82.1,0,0,0,0
2021-06-07T02:58:00+09:00,0.7,��쓌,1.2,��,16.9,82,0,0,0,0
2021-06-07T02:59:00+09:00,0.7,��쓌,1.2,��,16.9,82.1,0,0,0,0
2021-06-07T03:00:00+09:00,0.7,��쓌,1.2,��,16.9,82.5,0,0,0,0
2021-06-07T03:01:00+09:00,0.6,��쓌,1.2,��,16.8,82.7,0,0,0,0
2021-06-07T03:02:00+09:00,0.6,��쓌,1.2,��,16.9,82.7,0,0,0,0
2021-06-07T03:03:00+09:00,0.5,��,1.2,��,17.1,82.3,0,0,0,0
2021-06-07T03:04:00+09:00,0.4,��,1.2,��,17.2,82.3,0,0,0,0
2021-06-07T03:05:00+09:00,0.4,��,1.2,��,17.2,81.8,0,0,0,0
2021-06-07T03:06:00+09:00,0.3,��쐼,1.2,��,17.2,81.5,0,0,0,0
2021-06-07T03:07:00+09:00,0.2,�É�,1.2,��,17.2,81.3,0,0,0,0
2021-06-07T03:08:00+09:00,0.2,�É�,0.9,���쓌,17.2,81.6,0,0,0,0
2021-06-07T03:09:00+09:00,0.2,�É�,0.9,���쓌,17.2,81.8,0,0,0,0
2021-06-07T03:10:00+09:00,0.3,�쓌,1.3,���쓌,17.2,81.6,0,0,0,0
2021-06-07T03:11:00+09:00,0.3,���쓌,1.3,���쓌,17.1,82.1,0,0,0,0
2021-06-07T03:12:00+09:00,0.4,��,1.3,���쓌,17.1,82.4,0,0,0,0
2021-06-07T03:13:00+09:00,0.5,��,1.3,���쓌,17.2,82.4,0,0,0,0
2021-06-07T03:14:00+09:00,0.6,���쓌,1.3,���쓌,17.3,82.7,0,0,0,0
2021-06-07T03:15:00+09:00,0.7,���쓌,1.3,���쓌,17.1,81.6,0,0,0,0
2021-06-07T03:16:00+09:00,0.7,���쓌,1.3,���쓌,17,81.3,0,0,0,0
2021-06-07T03:17:00+09:00,0.8,���쓌,1.3,���쓌,17,81.8,0,0,0,0
2021-06-07T03:18:00+09:00,0.8,���쓌,1.3,���쓌,17.1,82.5,0,0,0,0
2021-06-07T03:19:00+09:00,0.9,���쓌,1.3,���쓌,17.1,82.6,0,0,0,0
2021-06-07T03:20:00+09:00,0.8,���쓌,1.3,���쓌,17.3,83.3,0,0,0,0
2021-06-07T03:21:00+09:00,0.8,���쓌,1.3,���쓌,17.5,83,0,0,0,0
2021-06-07T03:22:00+09:00,0.7,���쓌,1.3,���쓌,17.3,81.7,0,0,0,0
2021-06-07T03:23:00+09:00,0.7,��,1.3,���쓌,17.2,81.8,0,0,0,0
2021-06-07T03:24:00+09:00,0.6,��,1.2,�쓌,17.1,82.4,0,0,0,0
2021-06-07T03:25:00+09:00,0.5,��,1,��,17,82.8,0,0,0,0
2021-06-07T03:26:00+09:00,0.5,��,1.1,���k��,17,83.2,0,0,0,0
2021-06-07T03:27:00+09:00,0.5,���k��,1.1,���k��,17,83.7,0,0,0,0
2021-06-07T03:28:00+09:00,0.5,���k��,1.1,���k��,16.9,84.3,0,0,0,0
2021-06-07T03:29:00+09:00,0.5,���k��,1.1,���k��,17,84.5,0,0,0,0
2021-06-07T03:30:00+09:00,0.5,���k��,1.1,���k��,17,84.3,0,0,0,0
2021-06-07T03:31:00+09:00,0.6,���k��,1.1,���k��,17,84.5,0,0,0,0
2021-06-07T03:32:00+09:00,0.6,��,1.1,���k��,17,84.6,0,0,0,0
2021-06-07T03:33:00+09:00,0.6,��,1.1,���k��,17.1,84.7,0,0,0,0
2021-06-07T03:34:00+09:00,0.6,��,1.1,���k��,17.1,84.9,0,0,0,0
2021-06-07T03:35:00+09:00,0.5,��,1.1,���k��,17.1,84.7,0,0,0,0
2021-06-07T03:36:00+09:00,0.5,��,1,���k��,17.4,85.5,0,0,0,0
2021-06-07T03:37:00+09:00,0.5,��,1,���k��,17.2,84.2,0,0,0,0
2021-06-07T03:38:00+09:00,0.5,��,1,���k��,17.1,84.1,0,0,0,0
2021-06-07T03:39:00+09:00,0.5,��,1.4,��,17,83.9,0,0,0,0
2021-06-07T03:40:00+09:00,0.5,��,1.4,��,17,84,0,0,0,0
2021-06-07T03:41:00+09:00,0.5,��,1.4,��,16.9,83.7,0,0,0,0
2021-06-07T03:42:00+09:00,0.6,��,1.4,��,16.9,83.7,0,0,0,0
2021-06-07T03:43:00+09:00,0.6,��,1.4,��,16.8,83.4,0,0,0,0
2021-06-07T03:44:00+09:00,0.7,��,1.4,��,16.8,83.2,0,0,0,0
2021-06-07T03:45:00+09:00,0.8,��,2.2,���k��,16.7,82.9,0,0,0,0
2021-06-07T03:46:00+09:00,0.9,��,2.2,���k��,16.6,82.3,0,0,0,0
2021-06-07T03:47:00+09:00,1.1,��,2.4,���k��,16.6,82.2,0,0,0,0
2021-06-07T03:48:00+09:00,1.2,��,2.6,���k��,16.6,82.5,0,0,0,0
2021-06-07T03:49:00+09:00,1.3,��,2.6,���k��,16.7,83,0,0,0,0
2021-06-07T03:50:00+09:00,1.3,���k��,2.6,���k��,16.6,82.7,0,0,0,0
2021-06-07T03:51:00+09:00,1.3,���k��,2.6,���k��,16.6,83.1,0,0,0,0
2021-06-07T03:52:00+09:00,1.3,���k��,2.6,���k��,16.6,83.2,0,0,0,0
2021-06-07T03:53:00+09:00,1.3,���k��,2.6,���k��,16.6,83.3,0,0,0,0
2021-06-07T03:54:00+09:00,1.3,���k��,2.6,���k��,16.6,83.7,0,0,0,0
2021-06-07T03:55:00+09:00,1.3,���k��,2.6,���k��,16.6,84.4,0,0,0,0
2021-06-07T03:56:00+09:00,1.2,���k��,2.6,���k��,16.6,84.7,0,0,0,0
2021-06-07T03:57:00+09:00,1.1,���k��,2.6,���k��,16.7,84.9,0,0,0,0
2021-06-07T03:58:00+09:00,1,���k��,2,�k��,16.7,85.1,0,0,0,0
2021-06-07T03:59:00+09:00,0.9,���k��,1.8,���k��,16.8,85.1,0,0,0,0
2021-06-07T04:00:00+09:00,0.9,��,1.5,���k��,16.7,84.3,0,0,0,0
2021-06-07T04:01:00+09:00,0.9,��,1.4,�쓌,16.6,84.5,0,0,0,0
2021-06-07T04:02:00+09:00,0.9,��,1.6,�쓌,16.6,85,0,0,0,0
2021-06-07T04:03:00+09:00,1,���쓌,1.6,�쓌,16.7,85.3,0,0,0,0
2021-06-07T04:04:00+09:00,0.9,���쓌,1.6,�쓌,16.7,85.6,0,0,0,0
2021-06-07T04:05:00+09:00,0.9,�쓌,1.6,�쓌,16.7,85.5,0,0,0,0
2021-06-07T04:06:00+09:00,0.9,�쓌,1.6,�쓌,16.7,85.5,0,0,0,0
2021-06-07T04:07:00+09:00,0.9,�쓌,1.6,�쓌,16.7,85.1,0,0,0,0
2021-06-07T04:08:00+09:00,1,�쓌,1.6,�쓌,16.7,85.4,0,0,0,0
2021-06-07T04:09:00+09:00,1,�쓌,1.9,�쓌,16.6,84.9,0,0,0,0
2021-06-07T04:10:00+09:00,1.1,�쓌,1.9,�쓌,16.6,84.8,0,0,0,0
2021-06-07T04:11:00+09:00,1.1,�쓌,2.1,���쓌,16.6,85.2,0,0,0,0
2021-06-07T04:12:00+09:00,1.1,�쓌,2.1,���쓌,16.6,85.5,0,0,0,0
2021-06-07T04:13:00+09:00,1.2,�쓌,2.1,���쓌,16.6,85.7,0,0,0,0
2021-06-07T04:14:00+09:00,1.2,���쓌,2.1,���쓌,16.6,85.7,0,0,0,0
2021-06-07T04:15:00+09:00,1.3,���쓌,2.1,���쓌,16.7,85.7,0,0,0,0
2021-06-07T04:16:00+09:00,1.2,���쓌,2.1,���쓌,16.7,85.8,0,0,0,0
2021-06-07T04:17:00+09:00,1.2,���쓌,2.1,���쓌,16.8,85.6,0,0,0,0
2021-06-07T04:18:00+09:00,1.1,���쓌,2.1,���쓌,16.7,85.1,0,0,0,0
2021-06-07T04:19:00+09:00,1,��,2.1,���쓌,16.5,85.4,0,0,0,0
2021-06-07T04:20:00+09:00,0.9,��,2.1,���쓌,16.5,85.9,0,0,0,0
2021-06-07T04:21:00+09:00,0.8,��,2,�쓌,16.5,86.2,0,0,0,0
2021-06-07T04:22:00+09:00,0.8,��,2,�쓌,16.5,86.6,0,0,0,0
2021-06-07T04:23:00+09:00,0.7,��,1.7,���쓌,16.5,86.6,0,0,0,0
2021-06-07T04:24:00+09:00,0.7,��,1.6,��,16.5,86.6,0,0,0,0
2021-06-07T04:25:00+09:00,0.6,��,1.1,���쓌,16.4,86.3,0,0,0,0
2021-06-07T04:26:00+09:00,0.7,���k��,1.1,���쓌,16.4,86.3,0,0,0,0
2021-06-07T04:27:00+09:00,0.7,���k��,1.1,���쓌,16.3,86.6,0,0,0,0
2021-06-07T04:28:00+09:00,0.7,��,1.1,���쓌,16.3,86.7,0,0,0,0
2021-06-07T04:29:00+09:00,0.7,��,1.1,���쓌,16.3,86.7,0,0,0,0
2021-06-07T04:30:00+09:00,0.7,��,1.1,���쓌,16.3,86.9,0,0,0,0
2021-06-07T04:31:00+09:00,0.7,��,1.1,���쓌,16.2,85.9,0,0,0,0
2021-06-07T04:32:00+09:00,0.8,��,1.3,���쓌,16.2,86,0,0,0,0
2021-06-07T04:33:00+09:00,0.8,��,1.3,���쓌,16.1,86,0,0,0,0
2021-06-07T04:34:00+09:00,0.9,��,1.5,���쓌,16.1,86.1,0,0,0,0
2021-06-07T04:35:00+09:00,0.9,��,1.5,���쓌,16.1,86.2,0,0,0,0
2021-06-07T04:36:00+09:00,1,��,1.5,���쓌,16.1,86.3,0,0,0,0
2021-06-07T04:37:00+09:00,1,��,1.5,���쓌,16.1,86.4,0,0,0,0
2021-06-07T04:38:00+09:00,1.1,��,1.7,���쓌,16.1,86,0,0,0,0
2021-06-07T04:39:00+09:00,1.1,���쓌,1.7,���쓌,16.1,85.5,0,0,0,0
2021-06-07T04:40:00+09:00,1.2,���쓌,1.7,���쓌,16,85.3,0,0,0,0
2021-06-07T04:41:00+09:00,1.3,���쓌,1.7,���쓌,16.1,85.6,0,0,0,0
2021-06-07T04:42:00+09:00,1.3,���쓌,1.9,���쓌,16.1,85.4,0,0,0,0
2021-06-07T04:43:00+09:00,1.3,���쓌,1.9,���쓌,16.2,85.6,0,0,0,0
2021-06-07T04:44:00+09:00,1.3,���쓌,1.9,���쓌,16.3,85.7,0,0,0,0
2021-06-07T04:45:00+09:00,1.2,���쓌,1.9,���쓌,16.4,85.1,0,0,0,0
2021-06-07T04:46:00+09:00,1.2,���쓌,1.9,���쓌,16.3,84.6,0,0,0,0
2021-06-07T04:47:00+09:00,1.2,���쓌,1.9,���쓌,16.2,84.5,0,0,0,0
2021-06-07T04:48:00+09:00,1.2,���쓌,1.9,���쓌,16.2,84.9,0,0,0,0
2021-06-07T04:49:00+09:00,1.1,���쓌,1.9,���쓌,16.2,84.9,0,0,0,0
2021-06-07T04:50:00+09:00,1.1,���쓌,1.9,���쓌,16.2,85,0,0,0,0
2021-06-07T04:51:00+09:00,1,���쓌,1.9,���쓌,16.4,85.6,0,0,0,0
2021-06-07T04:52:00+09:00,1,���쓌,1.5,��,16.5,85.9,0,0,0,0
2021-06-07T04:53:00+09:00,1,���쓌,1.5,��,16.3,84.4,0,0,0,0
2021-06-07T04:54:00+09:00,0.9,���쓌,1.4,���쓌,16.2,84.2,0,0,0,0
2021-06-07T04:55:00+09:00,1,���쓌,1.4,���쓌,16.2,84.8,0,0,0,0
2021-06-07T04:56:00+09:00,1,���쓌,1.5,���쓌,16.1,84.4,0,0,0,0
2021-06-07T04:57:00+09:00,1,���쓌,1.5,���쓌,16.1,84.3,0,0,0,0
2021-06-07T04:58:00+09:00,1,���쓌,1.5,���쓌,16.1,84.7,0,0,0,0
2021-06-07T04:59:00+09:00,1,���쓌,1.5,���쓌,16.5,86.1,0,0,0,0
2021-06-07T05:00:00+09:00,0.9,���쓌,1.5,���쓌,16.4,85.3,0,0,0,0
2021-06-07T05:01:00+09:00,0.8,���쓌,1.5,���쓌,16.3,84.5,0,0,0,0
2021-06-07T05:02:00+09:00,0.8,���쓌,1.5,���쓌,16.2,84.6,0,0,0,0
2021-06-07T05:03:00+09:00,0.7,���쓌,1.5,���쓌,16.2,84.7,0,0,0,0
2021-06-07T05:04:00+09:00,0.7,���쓌,1.5,���쓌,16.1,84.8,0,0,0,0
2021-06-07T05:05:00+09:00,0.6,���쓌,1.5,���쓌,16.1,85.2,0,0,0,0
2021-06-07T05:06:00+09:00,0.6,���쓌,1.4,��,16.5,86.5,0,0,0,0
2021-06-07T05:07:00+09:00,0.5,�쓌,1.4,��,16.5,85.8,0,0,0,0
2021-06-07T05:08:00+09:00,0.5,�쓌,1.3,��,16.3,84.3,0,0,0,0
2021-06-07T05:09:00+09:00,0.5,�쓌,1.2,��쓌,16.1,84.5,0,0,0,0
2021-06-07T05:10:00+09:00,0.6,��쓌,1.3,��쓌,16.1,85.1,0,0,0,0
2021-06-07T05:11:00+09:00,0.7,��쓌,1.3,��쓌,16.1,85.5,0,0,0,0
2021-06-07T05:12:00+09:00,0.7,��쓌,1.4,��,16.1,85.8,0,0,0,0
2021-06-07T05:13:00+09:00,0.7,��쓌,1.4,��,16.3,86.4,0,0,0,0
2021-06-07T05:14:00+09:00,0.7,��쓌,1.4,��,16.5,86.5,0,0,0,0
2021-06-07T05:15:00+09:00,0.7,��쓌,1.4,��,16.4,85.1,0,0,0,0
2021-06-07T05:16:00+09:00,0.7,��쓌,1.4,��,16.2,84.7,0,0,0,0
2021-06-07T05:17:00+09:00,0.6,��쓌,1.4,��,16.1,84.8,0,0,0,0
2021-06-07T05:18:00+09:00,0.7,��쓌,1.4,��,16.1,85.3,0,0,0,0
2021-06-07T05:19:00+09:00,0.7,��쓌,1.4,��,16.1,85.6,0,0,0,0
2021-06-07T05:20:00+09:00,0.7,�쓌,1.4,��,16.1,85.7,0,0,0,0
2021-06-07T05:21:00+09:00,0.7,�쓌,1.4,��,16.1,85.6,0,0,0,0
2021-06-07T05:22:00+09:00,0.6,�쓌,1.2,���쓌,16,85.7,0,0,0,0
2021-06-07T05:23:00+09:00,0.7,�쓌,1.2,���쓌,16.1,86,0,0,0,0
2021-06-07T05:24:00+09:00,0.7,���쓌,1.2,���쓌,16.2,86.2,0,0,0,0
2021-06-07T05:25:00+09:00,0.7,���쓌,1.2,���쓌,16.3,86.5,0,0,0,0
2021-06-07T05:26:00+09:00,0.6,���쓌,1.1,���쓌,16.3,86.1,0,0,0,0
2021-06-07T05:27:00+09:00,0.6,���쓌,1.1,���쓌,16.3,85.6,0,0,0,0
2021-06-07T05:28:00+09:00,0.5,���쓌,1.1,���쓌,16.4,86.1,0,0,0,0
2021-06-07T05:29:00+09:00,0.4,���쓌,1.1,���쓌,16.4,85.5,0,0,0,0
2021-06-07T05:30:00+09:00,0.4,���쓌,1,���쓌,16.5,85.5,0,0,0,0
2021-06-07T05:31:00+09:00,0.4,���쓌,1,���쓌,16.4,85.3,0,0,0,0
2021-06-07T05:32:00+09:00,0.3,���쓌,0.7,�쓌,16.4,84.7,0,0,0,0
2021-06-07T05:33:00+09:00,0.3,�쓌,0.6,���쓌,16.4,85.1,0,0,0,0
2021-06-07T05:34:00+09:00,0.3,�쓌,0.6,���쓌,16.8,86.1,0,0,0,0
2021-06-07T05:35:00+09:00,0.3,�쓌,0.6,���쓌,16.8,85.3,0,0,0,0
2021-06-07T05:36:00+09:00,0.3,�쓌,0.6,���쓌,16.6,84,0,0,0,0
2021-06-07T05:37:00+09:00,0.3,�쓌,0.6,���쓌,16.5,84,0,0,0,0
2021-06-07T05:38:00+09:00,0.4,���쓌,0.6,���쓌,16.5,84,0,0,0,0
2021-06-07T05:39:00+09:00,0.4,���쓌,0.6,���쓌,16.5,84.2,0,0,0,0
2021-06-07T05:40:00+09:00,0.4,���쓌,0.9,���k��,16.5,84.4,0,0,0,0
2021-06-07T05:41:00+09:00,0.4,���쓌,1.1,���k��,16.4,84.3,0,0,0,0
2021-06-07T05:42:00+09:00,0.5,��,1.3,���k��,16.4,84.6,0,0,0,0
2021-06-07T05:43:00+09:00,0.5,��,1.3,���k��,16.3,84.7,0,0,0,0
2021-06-07T05:44:00+09:00,0.6,��,1.3,���k��,16.3,85.1,0,0,0,0
2021-06-07T05:45:00+09:00,0.7,��,1.3,���k��,16.2,85.1,0,0,0,0
2021-06-07T05:46:00+09:00,0.8,���k��,1.3,���k��,16.2,85.3,0,0,0,0
2021-06-07T05:47:00+09:00,0.8,���k��,1.3,���k��,16.2,85.4,0,0,0,0
2021-06-07T05:48:00+09:00,0.8,���k��,1.3,���k��,16.1,85.6,0,0,0,0
2021-06-07T05:49:00+09:00,0.9,���k��,1.3,���k��,16.2,86,0,0,0,0
2021-06-07T05:50:00+09:00,0.9,���k��,1.3,���k��,16.2,86,0,0,0,0
2021-06-07T05:51:00+09:00,0.8,���k��,1.3,���k��,16.2,86,0,0,0,0
2021-06-07T05:52:00+09:00,0.8,��,1.3,���k��,16.3,86.1,0,0,0,0
2021-06-07T05:53:00+09:00,0.7,��,1.3,���k��,16.4,86.1,0,0,0,0
2021-06-07T05:54:00+09:00,0.7,��,1.3,���k��,16.4,85.7,0,0,0,0
2021-06-07T05:55:00+09:00,0.7,��,1.3,���k��,16.6,86,0,0,0,0
2021-06-07T05:56:00+09:00,0.6,��,1.2,���k��,16.7,85.9,0,0,0,0
2021-06-07T05:57:00+09:00,0.6,���쓌,1.1,��,16.9,86,0,0,0,0
2021-06-07T05:58:00+09:00,0.5,���쓌,1.1,��,16.9,85.2,0,0,0,0
2021-06-07T05:59:00+09:00,0.5,���쓌,1.1,��,16.9,84.6,0,0,0,0
2021-06-07T06:00:00+09:00,0.5,���쓌,1.1,��,16.9,84.1,0,0,0,0
2021-06-07T06:01:00+09:00,0.5,���쓌,1.1,��,16.9,83.7,0,0,0,0
2021-06-07T06:02:00+09:00,0.4,���쓌,1.1,��,16.8,83.5,0,0,0,0
2021-06-07T06:03:00+09:00,0.4,���쓌,1.1,��,16.8,83.3,0,0,0,0
2021-06-07T06:04:00+09:00,0.4,���쓌,1.3,���쓌,16.9,83,0,0,0,0
2021-06-07T06:05:00+09:00,0.4,���쓌,1.3,���쓌,17.1,83,0,0,0,0
2021-06-07T06:06:00+09:00,0.4,���쓌,1.3,���쓌,17,81.4,0,0,0,0
2021-06-07T06:07:00+09:00,0.4,���쓌,1.3,���쓌,16.9,81.1,0,0,0,0
2021-06-07T06:08:00+09:00,0.4,���쓌,1.3,���쓌,16.9,81.8,0,0,0,0
2021-06-07T06:09:00+09:00,0.4,��,1.3,���쓌,16.8,82,0,0,0,0
2021-06-07T06:10:00+09:00,0.5,��,1.3,���쓌,16.7,82.4,0,0,0,0
2021-06-07T06:11:00+09:00,0.5,��,1.3,���쓌,16.7,82.9,0,0,0,0
2021-06-07T06:12:00+09:00,0.5,��,1.3,���쓌,16.7,83.3,0,0,0,0
2021-06-07T06:13:00+09:00,0.5,��,1.3,���쓌,16.7,83.9,0,0,0,0
2021-06-07T06:14:00+09:00,0.4,��,0.9,���k��,16.7,84.3,0,0,0,0
2021-06-07T06:15:00+09:00,0.4,��,0.9,���k��,16.8,84.4,0,0,0,0
2021-06-07T06:16:00+09:00,0.4,��,0.9,���k��,16.7,84,0,0,0,0
2021-06-07T06:17:00+09:00,0.4,���k��,0.9,���k��,16.7,84.3,0,0,0,0
2021-06-07T06:18:00+09:00,0.4,���k��,0.9,���k��,16.7,84.5,0,0,0,0
2021-06-07T06:19:00+09:00,0.4,���k��,0.9,���k��,16.9,85,0,0,0,0
2021-06-07T06:20:00+09:00,0.4,���k��,0.9,���k��,17,84.8,0,0,0,0
2021-06-07T06:21:00+09:00,0.4,���k��,0.9,��,16.9,84.1,0,0,0,0
2021-06-07T06:22:00+09:00,0.4,���k��,0.9,��,16.9,84.3,0,0,0,0
2021-06-07T06:23:00+09:00,0.5,���k��,0.9,��,16.9,84.3,0,0,0,0
2021-06-07T06:24:00+09:00,0.5,���k��,0.9,��,17,84.8,0,0,0,0
2021-06-07T06:25:00+09:00,0.5,���k��,0.9,��,17,84.6,0,0,0,0
2021-06-07T06:26:00+09:00,0.5,��,0.9,��,17.1,84.6,0,0,0,0
2021-06-07T06:27:00+09:00,0.4,��,0.9,��,17.4,85.1,0,0,0,0
2021-06-07T06:28:00+09:00,0.4,��,0.9,��,17.4,84,0,0,0,0
2021-06-07T06:29:00+09:00,0.4,��,0.9,��,17.4,83.5,0,0,0,0
2021-06-07T06:30:00+09:00,0.4,��,0.9,��,17.4,82.7,0,0,0,0
2021-06-07T06:31:00+09:00,0.4,��,0.8,���쓌,17.4,82.3,0,0,0,0
2021-06-07T06:32:00+09:00,0.3,��,0.8,���쓌,17.6,82.8,0,0,0,0
2021-06-07T06:33:00+09:00,0.3,��,0.8,���쓌,17.8,82,0,0,0,0
2021-06-07T06:34:00+09:00,0.3,��,0.8,���쓌,17.9,81.5,0,0,0,0
2021-06-07T06:35:00+09:00,0.3,��,0.8,���쓌,18,80.7,0,0,0,0
2021-06-07T06:36:00+09:00,0.3,��,0.8,���쓌,18,79.8,0,0,0,0